Regional Weather Roundup
Issued by NWS Sterling, VA

Home | Current Version | Previous Version | Graphics & Text | Print | Product List | Glossary On
Versions: 1 2 3 4 5 6 7 8 9 10 11 12 13 14 15 16 17 18 19 20 21 22 23 24 25 26 27 28 29 30 31 32 33 34 35 36 37 38 39 40 41 42 43 44 45 46 47 48 49 50
581
ASUS41 KLWX 210511
RWRLWX

REGIONAL WEATHER ROUNDUP
NATIONAL WEATHER SERVICE BALTIMORE MD/WASHINGTON DC
1200 AM EST SUN JAN 21 2018

Note: "FAIR" indicates few or no clouds below 12,000 feet
with no significant weather and/or obstructions to visibility.
 TC=TEMPERATURE CELSIUS

 * =Non NWS site. Station does not report precipitation (e.g. rain,
    snow, etc.), thunder, or fog.

DCZ001-MDZ009-015-VAZ040>042-051-053>054-210600-
WASHINGTON METRO

CITY           SKY/WX    TMP DP  RH WIND       PRES   REMARKS
WASHINGTON NAT FAIR      38  31  76 S3        30.11S
DULLES         FAIR      36  29  75 CALM      30.11R
ANDREWS AFB    FAIR      33  27  77 CALM      30.10R
FT BELVOIR     FAIR      31  27  82 CALM        N/A
COLLEGE PARK*  FAIR      29  26  87 CALM      30.10R
LEESBURG*      FAIR      32  30  93 CALM      30.11R
MANASSAS*      FAIR      25  22  88 CALM      30.11S
GAITHERSBURG*  FAIR      45  31  58 NW7       30.10S

$$

MDZ006>007-011-014-210600-
BALTIMORE METRO

CITY           SKY/WX    TMP DP  RH WIND       PRES   REMARKS
BWI AIRPORT    FAIR      37  30  75 CALM      30.09R
MD SCIENCE CTR   N/A     43  31  62 MISG      30.09S
MARTIN STATE   FAIR      32  32 100 CALM      30.11R
ANNAPOLIS      FAIR      34  31  88 CALM      30.10R
FORT MEADE*    FAIR      30  28  93 CALM      30.12R

$$

MDZ012-015-019>023-210600-
MARYLAND EASTERN SHORE

CITY           SKY/WX    TMP DP  RH WIND       PRES   REMARKS
OCEAN CITY     FAIR      32  29  88 CALM      30.10S
SALISBURY      FAIR      30  25  81 CALM      30.10R
BAY BRIDGE AP* FAIR      32  27  80 CALM      30.10S
CAMBRIDGE*     CLEAR     30  27  86 CALM      30.10S
EASTON*        FAIR      33  26  73 CALM      30.13S

$$

MDZ017>025-210600-
SOUTHERN MARYLAND

CITY           SKY/WX    TMP DP  RH WIND       PRES   REMARKS
PATUXENT RIVER NOT AVBL
ST INIGOES     FAIR      33  29  85 CALM      30.10R
LEONARDTOWN*   FAIR      41  32  70 W3        30.11S

$$

MDZ003>005-210600-
NORTH CENTRAL MARYLAND

CITY           SKY/WX    TMP DP  RH WIND       PRES   REMARKS
FREDERICK*     FAIR      36  28  75 CALM      30.12S
HAGERSTOWN APT FAIR      49  33  54 SW5       30.09R
WESTMINSTER*   FAIR      41  32  70 W3        30.09R

$$

MDZ501>502-210600-
WESTERN MARYLAND

CITY           SKY/WX    TMP DP  RH WIND       PRES   REMARKS
OAKLAND*       CLOUDY    37  34  87 W10G22    30.08S WCI  30
CUMBERLAND*    CLOUDY    50  37  62 W3        30.14F

$$

VAZ025>031-210600-
SHENANDOAH VALLEY

CITY           SKY/WX    TMP DP  RH WIND       PRES   REMARKS
WINCHESTER*    FAIR      43  30  61 W5        30.12R
FRONT ROYAL*   FAIR      43  30  61 SE5       30.10R
LURAY*         FAIR      37  32  81 W3        30.12R
NEW MARKET*    MOCLDY    30  25  81 CALM      30.12S
STAUNTON*      FAIR      35  30  82 S3        30.15R
WAYNESBORO*    FAIR      47  39  73 W8        30.13R

$$

WVZ021-048>050-054>055-210600-
EASTERN WEST VIRGINIA PANHANDLE

CITY           SKY/WX    TMP DP  RH WIND       PRES   REMARKS
MARTINSBURG    FAIR      48  33  56 SW9       30.09R
PETERSBURG*    CLOUDY    51  40  65 W3        30.11F

$$

VAZ036>039-050-210600-
CENTRAL FOOTHILLS

CITY           SKY/WX    TMP DP  RH WIND       PRES   REMARKS
CHARLOTTESVILL FAIR      49  34  56 S6        30.11R
CULPEPER*      FAIR      31  26  80 CALM      30.12S
ORANGE*        FAIR      37  32  81 CALM      30.11S
GORDONSVILLE*  FAIR      34  32  91 CALM      30.11S
WARRENTON*     FAIR      26  21  82 CALM      30.10S

$$

VAZ055>057-210600-
NORTH AND CENTRAL PIEDMONT

CITY           SKY/WX    TMP DP  RH WIND       PRES   REMARKS
FREDERICKSBRG* FAIR      34  32  92 CALM      30.11R
STAFFORD*      FAIR      31  31 100 CALM      30.15S

$$

NCZ024-NYZ072-PAZ021-071-VAZ022-071-210600-
OTHER REGIONAL OBSERVATIONS

CITY           SKY/WX    TMP DP  RH WIND       PRES   REMARKS
NEW YORK CITY  FAIR      45  27  49 W5        30.06R
PHILADELPHIA   FAIR      34  29  82 SE3       30.09R
PITTSBURGH     MOCLDY    40  31  70 W6        30.12R
ROANOKE        FAIR      47  39  74 W8        30.18R
RICHMOND       FAIR      40  33  76 CALM      30.10S
RALEIGH        FAIR      38  32  79 SW3       30.19S

$$

ANZ530>537-210600-
MARINE OBSERVATIONS

STATION/POSITION TIME  TEMP    WIND        PRES
                       AIR SEA DIR/SP/G
                 (UTC) (F)     (DEG/KT/KT) (MB)
THOMAS PT LIGHT  0500   47 33  260/  6/  6   N/A
BALT KEY BRIDGE  0442   44     160/  1/  2 1019.2R
COVE POINT       0442   47     320/  4/  7 1019.8R
LEWISETTA        0442   46 34   CALM  /  2 1019.2R
SOLOMONS ISLAND  0442   37 34  320/  4/  5 1018.8S
PINEY POINT      0442          330/  2/  2   N/A

$$





USA.gov is the U.S. government's official web portal to all federal, state and local government web resources and services.